STARLINK-3825 (52478 NORAD) Tracking and Keplerian Element Data

This shows tracking and keplerian element data for the satellite.

Feedback or suggestion? Click here.




ElementValue
Catalog52478
NameSTARLINK-3825
Epoch Orbit130
Epoch Day167.08334491
Epoch Year2022
RAAN64.9868
Inclination53.2165
Eccentricity0.0001902
Argument of Perigee26.4395
Mean Anonmoly118.6861
Mean Motion15.7321886
Decay Rate0.00054753
L11 52478U 22049AD 22167.08334491 .00054753 00000+0 39167-3 0 9995
L22 52478 53.2165 64.9868 0001902 26.4395 118.6861 15.73218860 1308

Live tracking and technical data element details for STARLINK-3825 (NORAD 52478). STARLINK-3825 can be tracked NOW for your location showing map with azimuth and elevation plus other details from your city location.

Track the satellite on the map from your city or location and see movement details for azimuth, elevation, latitude, longitude, range, height, and movement on the map or in text.







IsCatalogInMostPopularTable: catalog: 52478, numindb: 1
Update: records affected: 1



GetName: 52478 STARLINK-3825

Hit Count: updated at: Mon, 27 Jun 2022 04:57:12 GMT